Lid_Strength_Index
7 6 6 5 4 4 4 4 3 2 1 1 1 1 1 1 1 1 1 1 1 2 3 3 4 5 6 9 10 11 13 11
8 8 7 6 5 5 4 4 3 2 1 1 2 1 1 1 1 1 1 1 2 4 3 5 6 7 9 10 11 13 13 13
9 8 7 7 6 5 5 4 3 2 2 1 2 1 1 1 1 2 1 2 5 6 7 8 8 9 10 11 11 13 13 13
9 8 8 7 7 6 5 5 4 3 2 2 1 1 1 2 2 2 3 5 7 9 10 11 10 11 12 12 12 13 12 13
10 9 8 7 6 6 6 5 4 3 3 2 2 1 2 2 2 3 5 7 9 10 11 11 11 12 13 12 11 11 13 12
9 8 7 6 6 6 5 5 4 4 3 2 2 2 2 2 3 5 7 8 10 11 11 12 13 13 13 12 12 13 13 13
9 8 7 6 6 5 5 5 4 4 3 2 2 2 2 2 4 7 8 10 10 11 13 13 14 14 14 13 13 13 14 13
6 6 7 7 6 6 6 6 5 4 3 2 2 1 2 3 5 7 8 10 11 11 13 13 13 15 14 14 14 14 14 13
6 6 6 6 6 6 7 7 6 4 2 1 2 2 3 5 6 7 9 11 12 13 15 14 14 15 15 14 14 14 14 13
8 9 8 7 7 6 7 7 5 3 2 2 3 4 5 5 7 9 10 12 14 15 15 16 15 14 14 14 14 14 13 13
9 9 9 9 8 7 7 3 3 2 3 4 5 6 6 8 10 11 13 14 15 16 16 16 16 14 14 14 14 14 13 12
11 11 11 11 9 9 7 4 4 5 6 7 8 8 9 9 11 12 14 16 16 17 16 16 15 15 14 14 13 13 12 11
12 12 12 12 12 10 8 7 7 9 9 9 10 10 11 12 12 13 14 15 15 15 15 15 15 15 14 14 13 12 11 12
14 13 13 13 12 11 10 8 9 9 10 10 11 12 13 14 15 16 14 14 15 14 14 13 13 14 14 13 13 13 13 13
14 14 14 13 12 12 10 10 10 11 12 13 13 13 14 14 14 15 17 15 14 14 14 14 13 13 13 13 13 13 13 12
13 14 15 14 14 13 12 12 12 12 12 12 13 13 13 14 14 14 14 15 16 15 14 13 13 13 13 13 13 12 12 12
13 14 14 15 15 14 12 12 12 12 12 12 12 13 13 13 13 13 14 14 14 14 13 12 12 12 13 13 12 12 13 13
14 16 14 14 14 13 13 13 13 13 13 14 13 13 13 13 13 13 13 13 12 11 11 12 11 11 11 12 12 12 12 12
13 14 13 14 14 13 13 13 13 13 13 13 13 12 12 12 12 12 11 10 10 10 11 11 13 11 12 12 12 12 12 12
14 14 14 14 13 13 13 13 12 12 12 12 12 12 12 12 11 10 10 10 11 11 11 12 13 10 11 11 11 11 11 11